Location: Unspecified
(40.7945°N, 111.1337°W)
Time: 17:30:26
(UTC-06:00)

Resurs 1-4 Rocket - Visible Passes

Search period start: 20 May 2018 00:00
Search period end: 30 May 2018 00:00
Orbit: 799 x 814 km, 98.5° (Epoch: 20 May)

Date Brightness Start Highest point End Pass type
(mag) Time Alt. Az. Time Alt. Az. Time Alt. Az.
20 May 2.4 03:10:55 10° NNE 03:16:09 59° E 03:17:40 42° SSE visible
20 May 3.8 04:51:56 10° NNW 04:55:29 19° WNW 04:58:45 11° WSW visible
21 May 3.2 02:46:39 10° NNE 02:51:28 35° E 02:52:50 30° SE visible
21 May 3.2 04:26:39 10° N 04:31:10 30° WNW 04:33:55 19° WSW visible
22 May 3.9 02:22:45 10° NE 02:26:42 21° E 02:28:00 19° ESE visible
22 May 2.5 04:01:41 10° N 04:06:45 48° WNW 04:09:05 29° SW visible
23 May 4.4 01:59:52 10° ENE 02:01:50 12° E 02:03:10 11° ESE visible
23 May 2.0 03:36:57 10° N 03:42:15 81° WNW 03:44:15 40° SSW visible
23 May 4.2 05:19:54 10° NW 05:21:12 11° WNW 05:22:31 10° WNW visible
24 May 2.4 03:12:25 10° NNE 03:17:40 61° ESE 03:19:25 40° SSE visible
24 May 3.8 04:53:31 10° NNW 04:57:00 18° WNW 05:00:27 10° WSW visible
25 May 3.2 02:48:08 10° NNE 02:53:00 36° E 02:54:35 30° SE visible
25 May 3.3 04:28:12 10° N 04:32:41 29° WNW 04:35:39 17° WSW visible
26 May 3.8 02:24:13 10° NE 02:28:15 22° E 02:29:45 19° ESE visible
26 May 2.6 04:03:14 10° N 04:08:17 46° WNW 04:10:49 27° SW visible
27 May 4.4 02:01:11 10° ENE 02:03:24 13° E 02:04:54 11° ESE visible
27 May 2.0 03:38:28 10° N 03:43:47 78° WNW 03:45:58 37° SSW visible
27 May 4.3 05:21:44 10° NW 05:22:42 10° WNW 05:23:41 10° WNW visible
28 May 2.3 03:13:56 10° NNE 03:19:12 64° ESE 03:21:08 38° SSE visible
28 May 3.9 04:55:07 10° NNW 04:58:30 17° WNW 05:01:53 10° WSW visible
29 May 3.1 02:49:37 10° NNE 02:54:33 37° E 02:56:17 29° SE visible
29 May 3.3 04:29:45 10° N 04:34:11 28° WNW 04:37:22 16° WSW visible
